Location: *
(43.9905°S, 176.4941°W)
Time: 06:49:37
(UTC+00:00)

USA 229 DEB - Pass Details

Date: 08 December 2019
Orbit: 995 x 1217 km, 63.4° (Epoch: 16 January)

Event Time Altitude Azimuth Distance (km) Brightness Sun altitude
Exits shadow 11:09:04 37° 34° (NE) 1,778 4.4 -23.0°
Maximum altitude 11:10:46 42° 65° (ENE) 1,646 4.4 -23.0°
Drops below altitude 10° 11:17:36 10° 132° (SE) 3,072 6.5 -23.1°
Sets 11:20:24 0° 138° (SE) 4,006 7.3 -23.2°
